Location: Watson Lake
(60.1170°N, 128.8000°W)
Time: 08:55:13
(UTC-08:00)

Daily predictions for brighter satellites

Satellite Brightness Start Highest point End
(mag) Time Altitude Azimuth Time Altitude Azimuth Time Altitude Azimuth
SL-16 R/B 4.3 18:26:39 10° NNE 18:31:59 30° NW 18:37:17 10° WSW
Cosmos 2181 Rocket 4.0 18:26:25 10° NNW 18:32:38 68° ENE 18:38:56 10° SSE
Meteor 1-25 Rocket 4.3 18:27:12 10° S 18:32:46 60° E 18:38:26 10° NNE
Cosmos 1315 Rocket 4.1 18:31:02 10° SW 18:34:48 42° WNW 18:38:36 10° N
NOSS 3-1 (C) 4.0 18:28:04 10° WNW 18:35:00 86° NNE 18:42:57 10° ESE
SL-16 R/B 2.9 18:31:05 10° NW 18:36:26 39° NNE 18:41:45 10° E
Cosmos 1340 2.7 18:32:58 10° NNW 18:36:49 87° WSW 18:40:37 10° SSE
NOSS 2-2 (D) 4.1 18:35:08 10° SSW 18:39:22 50° SE 18:44:40 10° ENE
RESURS DK-1 3.2 18:38:26 10° WSW 18:42:30 50° NW 18:46:34 10° NE
USA 116 4.1 18:38:35 10° NNE 18:42:37 83° WNW 18:47:10 10° SSW
Okean 1 Rocket 4.0 18:39:33 10° SE 18:43:18 27° E 18:47:03 10° NNE
Cosmos 1025 Rocket 3.4 18:39:06 10° N 18:43:19 43° ENE 18:47:32 10° SE
USA 186 3.2 18:41:51 10° ESE 18:43:46 17° ENE 18:45:39 10° NNE
Timation 2 Rocket 4.5 18:38:30 10° SW 18:45:25 73° NW 18:52:15 10° NE
Geosat 4.3 18:40:34 10° NE 18:45:29 50° ESE 18:50:23 10° SSW
Cosmos 371 Rocket 4.2 18:42:04 10° NNW 18:46:28 32° NE 18:50:53 10° ESE
Cosmos 2151 Rocket 3.7 18:43:46 10° S 18:48:12 56° E 18:52:40 10° NNE
SAR-Lupe-4 4.3 18:47:17 10° SE 18:50:31 33° ENE 18:53:47 10° N
SKYMED 2 3.6 18:48:50 10° NNE 18:53:10 61° ESE 18:57:29 10° S
Cosmos 1709 Rocket 4.1 18:47:20 10° SSE 18:53:19 54° E 18:59:17 10° NNE
Meteor 1-28 Rocket 3.3 18:52:02 10° NNE 18:55:48 55° E 18:59:33 10° S
NOSS 2-2 (C) 4.0 18:52:15 10° SW 18:56:36 61° SE 19:02:06 10° ENE
ALOS 2.3 18:52:33 10° SSE 18:57:12 69° ENE 19:01:53 10° NNW
Cosmos 2333 Rocket 2.2 18:51:54 10° NW 18:57:41 77° NE 19:03:28 10° SE
Cosmos 2082 Rocket 3.0 18:52:56 10° WSW 18:58:31 50° NW 19:04:07 10° NE
Meteor 1-11 Rocket 4.2 18:53:21 10° SSE 18:58:51 43° E 19:04:27 10° NNE
Cosmos 841 Rocket 4.0 18:54:34 10° NNW 18:59:30 42° NE 19:04:23 10° ESE
Cosmos 1980 3.7 18:55:07 10° NW 19:00:48 70° NE 19:06:27 10° SE
FREGAT/IRIS 2.8 18:59:53 10° SSE 19:02:59 80° WSW 19:06:06 10° NNW
H-2A R/B 3.9 19:02:37 10° ENE 19:05:43 16° NE 19:08:50 10° N
Nadezhda 3 Rocket 4.4 19:01:03 10° N 19:06:54 42° ENE 19:12:45 10° SE
Okean 1-7 Rocket 3.6 19:02:21 10° NNW 19:06:57 78° ENE 19:11:28 10° SSE
Cosmos 1437 3.7 19:04:32 10° N 19:07:31 30° ENE 19:10:28 10° SE
Cosmos 1763 Rocket 3.7 19:06:07 10° NNW 19:11:08 52° NE 19:16:10 10° SE
Cosmos 1745 Rocket 4.3 19:05:35 10° SSW 19:11:52 73° WNW 19:18:08 10° NNE
deb Kosmos-1763 4.1 19:08:38 10° SSW 19:12:26 85° ESE 19:16:17 10° NNE
FENGYUN 3A 3.7 19:12:12 10° SSE 19:17:39 88° WSW 19:23:08 10° NNW
Cosmos 540 Rocket 4.3 19:13:01 10° NNW 19:17:42 34° NE 19:21:17 16° E
NOSS 0 Rocket 4.0 19:11:32 10° NW 19:17:44 84° SW 19:23:54 10° SE
Cosmos 1633 2.6 19:14:10 10° S 19:17:48 60° E 19:21:28 10° NNE
Cosmos 407 Rocket 3.5 19:12:49 10° SSW 19:18:06 77° ESE 19:23:29 10° NE
Cosmos 1515 4.4 19:15:06 10° N 19:18:42 35° ENE 19:22:10 11° SE
Cosmos 2285 Rocket 4.2 19:12:52 10° NNW 19:19:21 81° WSW 19:25:47 10° SSE
Terra 3.9 19:21:57 10° NE 19:23:41 12° NE 19:25:25 10° NNE
CZ-4B DEB 3.3 19:22:02 15° SE 19:24:17 36° ENE 19:27:12 10° N
Cosmos 1833 Rocket 3.7 19:19:16 10° WSW 19:24:38 43° NNW 19:30:01 10° NE
Cosmos 676 Rocket 4.0 19:20:08 10° SSW 19:25:19 67° ESE 19:30:33 10° NE
Cosmos 405 Rocket 2.8 19:24:12 10° NNW 19:28:18 65° ENE 19:32:20 10° SSE
Cosmos 1818 3.7 19:24:36 10° SSW 19:29:55 55° SE 19:34:58 11° ENE
SJ-6B 3.8 19:26:27 10° S 19:30:17 49° W 19:34:04 10° NNW
Cosmos 1140 Rocket 3.6 19:26:39 10° S 19:31:39 52° ESE 19:36:42 10° NE
Okean 2 3.3 19:29:31 10° NNW 19:33:42 78° ENE 19:37:54 10° SSE
NOSS 5 (C) 4.1 19:31:26 10° WSW 19:34:31 83° SSE 19:36:29 21° ENE
Cosmos 614 Rocket 4.2 19:29:45 10° S 19:34:33 44° ESE 19:39:23 10° NE
YAOGAN 6 3.9 19:35:42 21° ENE 19:36:26 22° ENE 19:39:18 10° N
Helios 1B rocket 3.5 19:33:56 10° NE 19:37:22 24° E 19:40:48 10° SSE
Cosmos 468 Rocket 4.2 19:33:19 10° NW 19:38:34 77° WSW 19:43:49 10° SSE
COSMO-SKYMED 1 3.2 19:37:00 10° NNE 19:41:18 60° WNW 19:45:35 10° SW
CZ-2D R/B 3.2 19:37:45 10° SSE 19:41:35 89° ENE 19:45:27 10° NNW
Cosmos 1300 Rocket 3.5 19:37:16 10° S 19:41:43 86° E 19:46:13 10° NNE
H-2A R/B 2.9 19:38:52 10° S 19:42:37 74° WSW 19:46:27 10° NNW
Helios 1A 2.9 19:39:02 10° SSE 19:43:12 81° ENE 19:47:23 10° NNW
Cosmos 2237 Rocket 2.3 19:40:13 10° NW 19:45:57 79° SW 19:51:40 10° SSE
Cosmos 1603 4.3 19:40:53 10° NW 19:46:18 43° NNE 19:49:37 22° E
COSMOS 2428 4.1 19:42:07 10° NW 19:47:21 38° WSW 19:52:34 10° S
Thor Agena Rocket 4.5 19:42:57 10° NNE 19:47:51 49° WNW 19:52:42 10° SW
Cosmos 1190 Rocket 4.3 19:42:50 10° SW 19:48:01 68° NW 19:53:16 10° NNE
Cosmos 1455 Rocket 3.9 19:48:04 24° ESE 19:49:07 27° E 19:52:47 10° NNE
Cosmos 1066 Rocket 4.3 19:43:35 10° NNW 19:49:16 58° ENE 19:54:16 13° SE
TSX-5 3.4 19:46:22 10° SSW 19:49:35 61° SE 19:52:03 19° NE
Spot 2 Rocket 4.0 19:47:45 10° S 19:52:47 62° WSW 19:57:52 10° NNW
Resurs 01 Rocket 2.4 19:51:58 10° S 19:56:18 54° WSW 20:00:40 10° NNW
SPOT 5 3.8 19:54:55 25° E 19:56:53 34° NE 20:01:32 10° N
ARGOS 4.0 19:54:41 24° E 19:56:54 32° NE 20:01:39 10° N
Cosmos 1441 Rocket 3.2 19:54:33 10° NNW 19:58:31 66° ENE 20:01:00 22° SSE
Cosmos 1814 Rocket 4.2 19:53:25 10° NW 19:58:37 71° WSW 20:03:44 10° SSE
Aureole 2 Rocket 2.3 19:55:25 10° NNW 19:59:04 68° NE 20:00:16 37° SE
Cosmos 2219 Rocket 3.1 19:54:00 10° NW 19:59:21 48° WSW 20:04:43 10° S
Meteor 2-8 Rocket 4.4 19:53:53 10° NNW 19:59:55 60° ENE 20:05:11 14° SSE
Cosmos 1536 2.7 19:55:58 10° S 19:59:58 85° ESE 20:03:59 10° NNE
Cosmos 1939 Rocket 2.9 19:58:13 25° SE 20:00:21 56° ENE 20:04:20 10° N
USA 32 4.1 19:57:02 10° N 20:02:14 57° ENE 20:06:28 15° SSE
NOSS 3-4 (A) 3.9 19:59:45 10° W 20:06:18 67° N 20:11:00 22° ENE
NOSS 3-4 (C) 3.9 19:59:52 10° W 20:06:24 67° N 20:11:07 22° ENE
NOSS 3-1 (A) 4.3 20:00:35 10° WNW 20:07:37 64° SW 20:14:17 15° SE
Cosmos 1850 Rocket 4.0 20:02:46 10° SSW 20:08:02 64° ESE 20:13:21 10° NE
ERS-1 Rocket 3.1 20:05:13 24° SE 20:08:12 57° ENE 20:13:10 10° NNW
NOSS 2-2 (E) 4.1 20:03:42 10° WSW 20:08:26 77° NNW 20:12:38 20° ENE
Cosmos 1346 3.6 20:05:55 10° N 20:08:15 40° NE 20:08:15 40° NE
CZ-2C R/B 3.9 20:02:56 10° N 20:08:58 23° NE 20:09:26 23° ENE
Envisat 2.9 20:04:30 13° SSE 20:09:08 78° ENE 20:14:16 10° NNW
USA 215 3.3 20:05:11 24° E 20:09:21 67° S 20:15:51 10° WSW
ATLAS CENTAUR R/B 2.1 20:06:22 10° WNW 20:10:26 43° N 20:12:12 26° NE
Cosmos 1954 Rocket 4.1 20:08:22 10° SW 20:13:37 78° NW 20:18:56 10° NNE
ATLAS 2AS CENTAUR R/B 3.1 20:05:36 10° WNW 20:13:51 84° NNE 20:18:44 27° ESE
USA 186 2.1 20:12:16 19° S 20:14:11 54° WSW 20:16:55 10° NNW
Cosmos 2219 3.3 20:09:06 10° SSW 20:14:41 54° ESE 20:20:16 10° NE
Cosmos 1610 Rocket 4.4 20:08:44 10° S 20:14:51 64° E 20:20:56 10° NNE
Cosmos 1892 Rocket 4.0 20:10:45 10° NNW 20:15:04 62° W 20:19:22 10° S
H-2A R/B 3.3 20:16:38 24° NE 20:16:44 24° NE 20:20:11 10° N
Cosmos 332 Rocket 3.9 20:12:14 10° NW 20:17:10 76° WSW 20:20:29 21° SSE
Cosmos 2227 Rocket 4.3 20:25:09 - NE 20:25:09 - NE 20:13:32 10° SSE
Cosmos 2327 Rocket 4.5 20:13:34 10° S 20:19:53 84° E 20:26:19 10° NNE
Okean 1 Rocket 3.7 20:16:29 10° SSW 20:20:56 60° WNW 20:25:23 10° N
SL-16 R/B 2.2 20:15:25 10° NW 20:21:08 86° SW 20:24:27 27° SE
Cosmos 1975 3.9 20:22:34 29° NE 20:22:34 29° NE 20:25:00 10° NNE
RESURS DK-1 4.3 20:17:59 10° WNW 20:21:24 24° NNW 20:24:18 13° NE
GENESIS II 4.5 20:19:42 10° WNW 20:23:44 64° SW 20:24:58 41° SSE
Cosmos 1943 3.8 20:21:16 10° NW 20:26:44 43° NNE 20:28:46 32° ENE
Cosmos 371 Rocket 3.4 20:22:30 10° NW 20:27:24 79° WSW 20:29:59 28° SSE
Cosmos 1842 4.1 20:25:21 10° N 20:28:38 35° NE 20:28:38 35° NE
NOSS 2-2 (D) 4.2 20:25:16 10° W 20:29:58 72° NNW 20:33:20 26° ENE
ALOS 4.5 20:31:11 10° SSW 20:35:06 26° W 20:39:03 10° NNW
NOAA 11 4.2 20:37:44 40° SE 20:39:32 62° ENE 20:44:57 10° NNW
Cosmos 2074 Rocket 4.2 20:33:23 10° SSW 20:39:41 75° WNW 20:46:01 10° NNE
Cosmos 2333 Rocket 3.7 20:36:30 10° NW 20:41:37 34° WSW 20:46:42 10° S
Cosmos 841 Rocket 4.0 20:36:33 10° NW 20:41:38 58° WSW 20:44:48 22° S
Cosmos 1833 4.4 20:37:56 10° SW 20:43:37 70° NW 20:49:15 10° NE
Cosmos 2082 Rocket 3.8 20:38:50 10° WNW 20:43:50 29° N 20:48:15 13° NE
H-2A R/B 2.6 20:43:08 39° E 20:43:56 42° ENE 20:49:03 10° N
SL-8 Rocket 4.3 20:43:11 39° ESE 20:44:38 45° E 20:50:36 10° NNE
Cosmos 2184 Rocket 4.2 20:38:52 10° SSW 20:45:09 72° WNW 20:51:24 10° NNE
NOSS 2-2 (C) 4.3 20:42:37 10° W 20:47:22 67° NNW 20:50:08 31° ENE
Cosmos 1544 Rocket 3.4 20:44:39 10° S 20:48:59 87° ESE 20:53:21 10° NNE
Cosmos 1763 Rocket 4.5 20:48:06 10° NW 20:52:56 43° WSW 20:56:32 17° S
GEOS 3 Rocket 4.1 20:54:43 40° SSE 20:54:43 40° SSE 20:58:45 10° SSW
Cosmos 1602 Rocket 3.8 20:49:31 10° NNW 20:53:57 69° W 20:55:36 37° S
MetOp-A 4.0 20:55:02 45° SSE 20:56:45 83° ENE 21:02:09 10° NNW
Meteor 2-13 Rocket 4.5 20:52:07 10° SSW 20:58:13 80° WNW 21:04:24 10° NNE
Cosmos 1626 Rocket 4.0 20:54:51 10° NNW 20:59:16 61° W 21:01:04 34° SSW
Cosmos 540 Rocket 3.5 20:54:41 10° NW 20:59:49 77° WSW 21:01:08 50° SSE
Terra 2.7 21:00:42 34° NE 21:00:42 34° NE 21:04:34 10° N
Cosmos 1741 Rocket 4.2 20:55:20 10° SW 21:00:34 69° NW 21:05:49 10° NNE
Cosmos 1825 Rocket 3.6 20:58:26 10° N 21:02:33 64° NE 21:02:33 64° NE
YAOGAN 6 3.2 21:10:10 54° WNW 21:10:10 54° WNW 21:13:20 10° NNW
YAOGAN 11 4.3 21:09:09 59° SSW 21:09:52 72° WSW 21:14:27 10° NNW
Cosmos 1833 Rocket 4.3 21:05:06 10° WNW 21:09:54 28° N 21:13:23 16° NE
Cosmos 2341 Rocket 3.9 21:05:28 10° S 21:11:52 86° ESE 21:18:20 10° NNE
USA 245 4.3 21:14:15 37° N 21:14:15 37° N 21:16:54 10° NNW
Helios 1B rocket 2.8 21:08:55 10° NNE 21:13:03 63° WNW 21:17:10 10° SSW
Cosmos 1818 3.8 21:08:03 10° WSW 21:13:32 67° NNW 21:15:38 37° NE
Cosmos 2154 Rocket 4.1 21:08:06 10° SSW 21:14:28 78° WNW 21:20:50 10° NNE
Cosmos 1727 Rocket 3.9 21:11:19 10° NNW 21:17:42 86° ENE 21:19:28 51° SSE
Cosmos 304 Rocket 3.7 21:13:50 10° NW 21:18:39 80° WSW 21:18:48 79° SSW
COSMOS 2406 4.2 21:14:20 10° NW 21:19:41 36° NNE 21:20:52 33° NE
SPOT 1/Viking Rocket 3.4 21:24:23 81° ESE 21:24:35 84° ENE 21:29:48 10° NNW
Cosmos 1455 Rocket 3.6 21:25:01 34° SW 21:26:42 57° WNW 21:31:02 10° N
Cosmos 1758 Rocket 4.0 21:22:41 10° NNW 21:26:21 57° N 21:26:21 57° N
Cosmos 1680 Rocket 4.1 21:23:48 10° NNW 21:28:47 44° NE 21:28:47 44° NE
Cosmos 2237 Rocket 4.3 21:24:56 10° NW 21:29:17 23° WSW 21:33:35 10° SSW
Cosmos 1538 Rocket 3.9 21:24:13 10° NNW 21:29:33 79° NE 21:29:33 79° NE
Cosmos 1603 3.7 21:25:10 10° NW 21:30:51 74° SW 21:31:31 66° S
SL-08 RB Rocket 3.9 21:32:59 69° NNW 21:32:59 69° NNW 21:37:04 10° NNW
Meteor 1-12 Rocket 4.5 21:28:16 10° SSW 21:34:14 73° WNW 21:40:07 10° NNE
SPOT 5 3.2 21:34:09 61° SW 21:34:42 66° WSW 21:39:54 10° NNW
ARGOS 3.2 21:36:11 65° SSW 21:36:50 74° WSW 21:42:16 10° NNW
Cosmos 923 Rocket 4.4 21:32:04 10° NNW 21:36:56 54° NNE 21:36:56 54° NNE
Cosmos 1953 Rocket 4.3 21:34:45 10° NNW 21:38:00 50° NNW 21:38:00 50° NNW
Meteor 2-15 Rocket 4.3 21:34:12 10° NNW 21:40:23 80° ENE 21:40:46 76° ESE
Cosmos 2366 rocket 3.8 21:44:05 74° E 21:44:05 74° E 21:50:05 10° NNE
ERS-1 Rocket 4.3 21:45:13 25° SW 21:47:16 35° W 21:51:54 10° NNW
ATLAS CENTAUR R/B 2.8 21:45:55 10° WNW 21:48:30 35° NW 21:48:30 35° NW
Cosmos 773 Rocket 4.2 21:46:42 10° NNW 21:51:25 69° NNW 21:51:25 69° NNW
H-2A R/B 3.1 21:53:45 44° NNW 21:53:45 44° NNW 21:56:43 10° NNW
USA 215 3.2 21:52:31 66° S 21:52:50 67° S 21:59:22 10° W
Meteor 1-24 Rocket 4.4 21:51:19 10° NNW 21:55:23 42° NNE 21:55:23 42° NNE
Cosmos 1975 4.4 21:58:17 34° NW 21:58:17 34° NW 22:01:35 10° N
NOSS 3-4 (A) 3.6 21:51:02 10° WNW 21:57:46 82° NNE 21:58:27 73° E
NOSS 3-4 (C) 3.6 21:51:09 10° WNW 21:57:53 82° NNE 21:58:33 73° E
Meteor 2-15 4.4 21:51:47 10° NNW 21:57:56 75° W 21:58:29 70° SW
Cosmos 2123 Rocket 4.2 21:52:20 10° N 21:58:03 56° NE 21:58:03 56° NE
Cosmos 2219 3.9 21:53:20 10° WSW 21:58:58 54° NW 22:04:37 10° NE
NOSS 2-2 (E) 4.5 21:54:28 10° WNW 21:59:39 65° N 22:00:02 64° NNE
RESURS DK-1 4.5 21:57:20 10° NW 22:00:13 22° N 22:00:13 22° N
Cosmos 1959 Rocket 4.4 22:00:02 70° SSW 22:00:49 84° WNW 22:07:08 10° NNE
Cosmos 2227 Rocket 4.5 22:06:54 13° NE 22:06:54 13° NE 22:07:23 10° NE
Cosmos 2218 Rocket 3.9 22:01:27 72° SW 22:02:05 83° WNW 22:08:26 10° NNE
Meteor 2-5 Rocket 3.9 21:59:02 10° NNW 22:03:43 63° N 22:03:43 63° N
SL-16 R/B 3.9 22:00:05 10° NW 22:04:39 25° WSW 22:06:21 22° SW
ATLAS 2AS CENTAUR R/B 3.4 21:56:52 10° WNW 22:04:43 53° SW 22:06:10 48° SSW
Cosmos 1943 3.4 22:05:31 10° NW 22:10:35 66° WNW 22:10:35 66° WNW
Aureole 1 Rocket 4.1 22:04:58 10° NNW 22:13:00 90° NE 22:13:14 85° SE
SL-08 R/B 4.5 22:13:05 77° W 22:13:18 78° WNW 22:19:35 10° NNE
Cosmos 1000 Rocket 4.5 22:12:28 10° NNW 22:18:23 76° WNW 22:18:23 76° WNW
H-2A R/B 2.7 22:23:46 53° W 22:23:46 53° W 22:28:41 10° NNW
Cosmos 2082 Rocket 3.5 22:24:24 10° NW 22:29:31 31° NNE 22:30:05 31° NNE
Terra 3.2 22:39:35 36° NW 22:39:35 36° NW 22:42:35 10° NNW
Cosmos 1833 Rocket 4.0 22:50:17 10° NW 22:55:05 33° NNE 22:55:05 33° NNE
COSMOS 2406 4.1 22:58:56 10° NW 23:02:56 46° NNW 23:02:56 46° NNW
Cosmos 2297 Rocket 4.1 23:29:10 21° NNE 23:29:10 21° NNE 23:31:08 10° NE
Cosmos 2227 Rocket 3.9 23:48:39 27° NNE 23:48:39 27° NNE 23:51:39 10° NE
